Tracking 18630 objects as of 25-May-2017
HD Live streaming from Space Station
objects crossing your sky now

OPS 8314 (2)

Track OPS 8314 (2) now!
10-day predictions
OPS 8314 (2) is classified as:


NORAD ID: 6822
Int'l Code: 1972-079C
Perigee: 1,426.1 km
Apogee: 1,471.2 km
Inclination: 95.7 °
Period: 114.7 minutes
Semi major axis: 7819 km
RCS: 0.3198 m2 (medium)
Launch date: October 10, 1972
Source: United States (US)
Launch site: AIR FORCE WESTERN TEST RANGE (AFWTR)
Your satellite tracking list
Your tracking list is empty





NASA's NSSDC Master Catalog

Two Line Element Set (TLE):
1  6822U 72079C   17144.82100773 -.00000002 +00000-0 +64055-4 0  9995
2  6822 095.6523 238.8590 0028810 230.1546 245.4605 12.55516323044282
Source of the keplerian elements: AFSPC